FW1036 Weather Reports


time (UTC)temp
F
wind
direction
speed
knots
gust
knots
rain 1hr
in
rain 24hr
in
rain mn
in
humidity
%
barometer
mb
20260506010029 49 141 0.0 1.7 0.00 0.00 0.00 77 1006.0
20260506004539 49 141 0.0 1.7 0.00 0.00 0.00 77 1005.9
20260506003030 49 141 0.0 2.6 0.00 0.00 0.00 77 1005.8
20260506001527 50 141 1.7 2.6 0.00 0.00 0.00 76 1005.7
20260506000026 50 38 0.0 0.0 0.00 0.00 0.00 74 1005.4
20260505234528 51 38 0.9 2.6 0.00 0.00 0.00 73 1005.2
20260505233031 51 38 0.0 2.6 0.00 0.00 0.00 72 1005.1
20260505231531 51 38 2.6 9.6 0.00 0.00 0.00 70 1005.1
20260505230026 56 355 0.9 9.6 0.00 0.00 0.00 47 1005.1
20260505224522 56 238 2.6 7.8 0.00 0.00 0.00 45 1005.0
20260505223020 56 217 1.7 6.1 0.00 0.00 0.00 64 1005.1
20260505221519 56 223 2.6 7.8 0.00 0.00 0.00 65 1005.1
20260505220040 56 230 5.2 8.7 0.00 0.00 0.00 64 1005.0
20260505214525 56 209 3.5 12.2 0.00 0.00 0.00 65 1005.0
20260505213021 56 242 3.5 12.2 0.00 0.00 0.00 66 1005.2
20260505211517 56 155 4.3 9.6 0.00 0.00 0.00 65 1005.1
20260505210017 56 227 3.5 7.8 0.00 0.00 0.00 67 1004.9
20260505204518 55 225 1.7 9.6 0.00 0.00 0.00 66 1005.2
20260505203014 56 192 5.2 9.6 0.00 0.00 0.00 64 1005.4
20260505201517 55 205 4.3 10.4 0.00 0.00 0.00 64 1005.2
20260505200013 55 227 5.2 8.7 0.00 0.00 0.00 66 1005.3
20260505194519 54 240 4.3 8.7 0.00 0.00 0.00 66 1005.4
20260505193014 54 169 3.5 9.6 0.00 0.00 0.00 66 1005.5
20260505191612 54 165 3.5 9.6 0.00 0.00 0.00 66 1005.5
20260505190010 54 171 2.6 13.0 0.00 0.00 0.00 67 1005.3
20260505184510 53 172 7.0 13.0 0.00 0.00 0.00 66 1005.2
20260505183007 53 209 3.5 10.4 0.00 0.00 0.00 66 1005.3
20260505181507 53 200 3.5 9.6 0.00 0.00 0.00 68 1005.1
20260505180006 52 203 3.5 8.7 0.00 0.00 0.00 66 1005.0
20260505174505 52 196 3.5 7.8 0.00 0.00 0.00 64 1005.1
20260505173005 52 162 5.2 8.7 0.00 0.00 0.00 66 1004.8
20260505171503 52 190 3.5 8.7 0.00 0.00 0.00 64 1005.0
20260505170003 52 207 1.7 7.0 0.00 0.00 0.00 65 1004.9
20260505164501 51 217 1.7 7.0 0.00 0.00 0.00 63 1004.9
20260505163000 51 176 0.9 6.1 0.00 0.00 0.00 65 1004.8
20260505161605 51 232 3.5 6.1 0.00 0.00 0.00 63 1005.0
20260505153109 49 203 0.0 4.3 0.00 0.00 0.00 66 1005.0
20260505151555 49 238 0.9 2.6 0.00 0.00 0.00 65 1004.9
20260505124547 48 333 4.3 8.7 0.00 0.00 0.00 64 1002.5
20260505123041 48 339 2.6 8.7 0.00 0.00 0.00 63 1002.4
20260505121538 49 331 1.7 7.8 0.00 0.00 0.00 64 1002.4
20260505120047 47 340 2.6 7.0 0.00 0.00 0.00 65 1002.2
20260505114535 47 5 5.2 8.7 0.00 0.00 0.00 66 1002.1
20260505113035 47 15 5.2 8.7 0.00 0.00 0.00 67 1002.0
20260505111531 46 11 3.5 7.0 0.00 0.00 0.00 67 1001.7
20260505101520 46 9 5.2 8.7 0.00 0.00 0.00 69 1000.0
20260505100018 46 338 7.0 11.3 0.00 0.00 0.00 68 999.7
20260505094518 46 5 6.1 10.4 0.00 0.00 0.00 69 999.6
20260505093014 47 11 7.0 12.2 0.00 0.00 0.00 69 999.4
20260505091514 47 311 7.8 12.2 0.00 0.00 0.00 71 999.3
20260505090009 46 5 6.1 13.9 0.00 0.00 0.00 75 999.1
20260505084520 46 5 7.0 13.9 0.00 0.00 0.00 79 998.9
20260505083003 47 343 5.2 13.0 0.00 0.00 0.00 82 998.3
20260505081600 47 355 7.0 9.6 0.00 0.00 0.00 82 997.9
20260505080112 48 5 5.2 12.2 0.00 0.00 0.00 81 997.7
20260505074553 50 17 7.0 9.6 0.00 0.00 0.00 79 997.5
20260505073048 54 12 7.8 12.2 0.00 0.00 0.00 75 997.1
20260505071545 61 277 1.7 7.0 0.00 0.00 0.00 71 997.0
20260505070046 61 231 3.5 7.8 0.00 0.00 0.00 72 996.7
20260505064548 60 223 4.3 7.8 0.00 0.00 0.00 74 996.7
20260505063041 59 237 7.0 13.0 0.00 0.00 0.00 77 996.8
20260505061540 59 245 2.6 3.5 0.00 0.00 0.00 78 996.8
20260505060040 59 215 1.7 3.5 0.00 0.00 0.00 78 996.9
20260505054539 60 216 0.0 3.5 0.00 0.00 0.00 77 997.0
20260505053104 61 215 1.7 4.3 0.00 0.00 0.00 73 997.2
20260505051537 60 203 0.9 5.2 0.00 0.00 0.00 75 997.1
20260505041523 61 230 3.5 10.4 0.00 0.00 0.00 72 996.4
20260505040020 62 171 2.6 10.4 0.00 0.00 0.00 72 996.2
20260505034524 62 162 4.3 8.7 0.00 0.00 0.00 71 996.3
20260505033018 62 252 4.3 13.0 0.00 0.00 0.00 71 996.5
20260505031518 62 202 3.5 13.9 0.00 0.00 0.00 70 996.4
20260505030018 62 209 4.3 13.9 0.00 0.00 0.00 68 996.4
20260505024517 63 240 5.2 12.2 0.00 0.00 0.00 66 996.5
20260505023016 63 185 4.3 9.6 0.00 0.00 0.00 62 996.5
20260505021515 63 164 3.5 8.7 0.00 0.00 0.00 60 996.5
20260505020015 64 155 0.9 4.3 0.00 0.00 0.00 58 996.7
20260505014514 64 155 1.7 6.1 0.00 0.00 0.00 58 996.5
20260505013014 63 200 0.9 4.3 0.00 0.00 0.00 59 996.3
20260505011530 65 212 2.6 5.2 0.00 0.00 0.00 56 996.1